�N����,����,�~����,�C��,���x,�C��,����,���ϕ���,�ő�u�ԕ���,�ő厞����,���˗�,�I�_���x,�n�����x,�ő啗���N��,DTYPE
"19/07/17","00:10",0.0,23.6,93.7,1006.2,336.3,0.7,1.3,332.7,0.00,22.6,25.0,"00:08:40",1
"19/07/17","00:20",0.0,23.5,93.6,1006.2,302.3,1.1,1.7,330.5,0.00,22.4,25.0,"00:12:00",1
"19/07/17","00:30",0.0,23.5,93.5,1006.2,284.0,0.8,1.1,280.0,0.00,22.4,25.1,"00:28:16",1
"19/07/17","00:40",0.0,23.5,93.6,1006.2,284.7,0.6,1.0,314.7,0.00,22.4,25.1,"00:32:08",1
"19/07/17","00:50",0.0,23.6,93.9,1006.2,309.2,0.8,1.2,331.2,0.00,22.6,24.7,"00:49:20",1
"19/07/17","01:00",0.0,23.7,93.7,1006.2,351.0,1.2,1.9,358.7,0.00,22.7,24.7,"00:57:36",1
"19/07/17","01:10",0.0,23.5,93.8,1006.4,324.7,1.1,1.4,335.8,0.00,22.5,24.9,"01:02:56",1
"19/07/17","01:20",0.0,23.4,94.0,1006.2,334.2,1.1,1.7,330.7,0.00,22.4,24.9,"01:13:20",1
"19/07/17","01:30",0.0,23.4,94.0,1006.2,334.6,1.0,1.4,329.4,0.00,22.4,24.9,"01:26:00",1
"19/07/17","01:40",0.0,23.2,94.0,1005.7,297.6,0.7,1.1,324.5,0.00,22.2,24.9,"01:30:08",1
"19/07/17","01:50",0.0,23.1,94.2,1006.4,322.5,0.7,1.2,321.4,0.00,22.2,24.7,"01:47:28",1
"19/07/17","02:00",0.0,23.2,94.5,1006.2,279.9,0.7,1.0,304.0,0.00,22.3,24.9,"01:50:16",1
"19/07/17","02:10",0.0,23.3,94.3,1006.4,302.1,0.8,1.3,303.0,0.00,22.4,24.7,"02:04:16",1
"19/07/17","02:20",0.0,23.4,94.3,1006.2,353.7,0.7,1.7,336.0,0.00,22.5,24.8,"02:10:24",1
"19/07/17","02:30",0.0,23.4,94.3,1006.2,321.7,1.1,1.6,327.7,0.00,22.5,24.7,"02:24:24",1
"19/07/17","02:40",0.0,23.4,94.4,1006.4,309.2,0.8,1.3,318.6,0.00,22.5,24.6,"02:38:24",1
"19/07/17","02:50",0.0,23.4,94.5,1006.2,351.3,0.5,1.2,330.0,0.00,22.5,24.7,"02:41:12",1
"19/07/17","03:00",0.0,23.4,94.4,1006.4,315.5,0.2,1.3,336.5,0.00,22.5,24.7,"02:53:04",1
"19/07/17","03:10",0.0,23.4,94.6,1006.4,297.1,0.5,0.8,313.6,0.00,22.5,24.6,"03:05:36",1
"19/07/17","03:20",0.0,23.4,94.5,1006.7,276.0,0.7,1.3,271.5,0.00,22.5,24.6,"03:19:52",1
"19/07/17","03:30",0.0,23.4,94.6,1006.7,312.1,0.6,1.2,78.0,0.00,22.5,24.5,"03:28:24",1
"19/07/17","03:40",0.0,23.4,94.6,1007.1,341.9,1.1,1.8,354.8,0.00,22.5,24.5,"03:30:32",1
"19/07/17","03:50",0.0,23.3,94.5,1006.7,338.0,1.0,1.7,337.5,0.00,22.4,24.5,"03:49:20",1
"19/07/17","04:00",0.0,23.3,94.5,1006.7,334.1,1.2,1.8,344.9,0.00,22.4,24.4,"03:51:20",1
"19/07/17","04:10",0.0,23.3,94.5,1006.9,321.7,0.8,1.6,333.8,0.00,22.4,24.5,"04:03:12",1
"19/07/17","04:20",0.0,23.3,94.6,1006.4,311.2,0.8,1.2,315.6,0.00,22.4,24.4,"04:13:52",1
"19/07/17","04:30",0.0,23.3,94.6,1006.7,269.2,0.5,0.9,296.9,0.00,22.4,24.4,"04:29:52",1
"19/07/17","04:40",0.0,23.2,94.5,1006.9,322.7,0.7,1.3,324.0,0.00,22.3,24.5,"04:31:52",1
"19/07/17","04:50",0.0,23.4,94.6,1006.4,348.4,1.1,2.1,350.8,0.00,22.5,24.4,"04:46:56",1
"19/07/17","05:00",0.0,23.4,94.7,1007.1,276.8,0.8,1.3,317.7,0.00,22.5,24.4,"04:51:36",1
"19/07/17","05:10",0.0,23.4,94.6,1007.4,324.1,0.7,1.1,331.5,0.00,22.5,24.4,"05:09:20",1
"19/07/17","05:20",0.0,23.4,94.7,1007.8,339.8,1.1,1.4,337.1,0.00,22.5,24.3,"05:17:44",1
"19/07/17","05:30",0.0,23.3,94.6,1007.6,342.6,1.0,1.3,354.4,0.00,22.4,24.3,"05:24:56",1
"19/07/17","05:40",0.0,23.3,94.8,1007.6,340.4,1.0,1.4,352.1,0.00,22.5,24.2,"05:34:40",1
"19/07/17","05:50",0.0,23.3,94.8,1007.4,310.8,0.8,1.4,330.2,0.00,22.5,24.3,"05:43:28",1
"19/07/17","06:00",0.0,23.3,94.8,1007.6,292.9,0.7,1.0,317.3,0.00,22.5,24.3,"05:52:24",1
"19/07/17","06:10",0.0,23.3,94.7,1007.8,308.1,0.8,1.3,329.6,0.00,22.4,24.4,"06:09:44",1
"19/07/17","06:20",0.0,23.6,94.7,1007.6,336.7,1.3,2.0,343.6,0.02,22.7,24.5,"06:15:04",1
"19/07/17","06:30",0.0,23.8,94.2,1007.4,315.2,1.0,1.8,333.3,0.03,22.9,24.5,"06:20:08",1
"19/07/17","06:40",0.0,23.8,93.8,1007.4,324.2,0.6,1.1,331.4,0.05,22.8,24.4,"06:30:08",1
"19/07/17","06:50",0.0,24.0,93.4,1007.4,268.5,0.7,1.3,242.4,0.05,22.9,24.4,"06:49:20",1
"19/07/17","07:00",0.0,24.3,93.6,1007.4,287.8,0.2,0.6,246.0,0.02,23.2,24.3,"06:50:08",1
"19/07/17","07:10",0.0,24.3,93.2,1007.4,270.2,0.3,0.8,285.3,0.02,23.2,24.4,"07:01:04",1
"19/07/17","07:20",0.0,24.4,92.9,1007.4,263.6,0.2,0.9,244.1,0.04,23.2,24.6,"07:18:24",1
"19/07/17","07:30",0.0,24.5,92.3,1007.4,285.2,0.2,0.6,267.3,0.04,23.2,24.6,"07:20:56",1
"19/07/17","07:40",0.0,24.6,92.1,1007.8,182.4,0.1,0.8,85.1,0.04,23.3,24.5,"07:38:56",1
"19/07/17","07:50",0.0,24.8,91.4,1007.4,246.2,0.2,0.5,138.6,0.07,23.3,24.7,"07:45:20",1
"19/07/17","08:00",0.0,25.3,90.9,1007.6,121.3,0.5,1.7,105.4,0.14,23.7,24.8,"07:59:20",1
"19/07/17","08:10",0.0,25.5,87.2,1007.4,106.0,1.0,1.7,107.3,0.11,23.3,24.9,"08:07:12",1
"19/07/17","08:20",0.0,25.9,85.1,1007.6,108.3,0.5,1.8,105.7,0.09,23.2,25.0,"08:16:08",1
"19/07/17","08:30",0.0,25.8,84.2,1008.1,212.6,0.8,2.4,70.3,0.08,23.0,24.8,"08:25:12",1
"19/07/17","08:40",0.0,25.8,83.9,1007.8,237.2,0.7,2.0,224.3,0.04,22.9,25.2,"08:38:40",1
"19/07/17","08:50",0.0,25.8,84.4,1007.8,227.2,1.0,1.9,237.7,0.05,23.0,25.2,"08:40:56",1
"19/07/17","09:00",0.0,25.6,85.8,1007.8,219.8,0.8,2.1,238.8,0.08,23.1,25.1,"08:54:40",1
"19/07/17","09:10",0.0,26.2,84.9,1007.8,214.6,0.7,1.3,220.2,0.25,23.5,25.2,"09:00:56",1
"19/07/17","09:20",0.0,26.8,80.9,1007.6,108.0,1.1,2.7,108.2,0.37,23.3,25.3,"09:19:28",1
"19/07/17","09:30",0.0,26.8,78.8,1006.9,120.5,1.0,2.5,112.3,0.33,22.8,25.7,"09:20:24",1
"19/07/17","09:40",0.0,26.8,79.4,1006.9,359.9,0.7,2.0,345.7,0.17,23.0,25.6,"09:37:04",1
"19/07/17","09:50",0.0,28.0,77.4,1007.4,18.4,0.8,1.8,351.6,0.43,23.7,25.9,"09:46:40",1
"19/07/17","10:00",0.0,28.3,76.6,1007.6,40.4,1.0,1.9,5.4,0.44,23.8,26.0,"09:57:28",1
"19/07/17","10:10",0.0,28.4,73.7,1007.6,28.9,0.8,1.9,86.0,0.45,23.3,26.3,"10:02:00",1
"19/07/17","10:20",0.0,28.6,73.3,1007.4,3.4,0.6,1.8,345.4,0.45,23.4,26.5,"10:12:32",1
"19/07/17","10:30",0.0,28.7,72.1,1007.4,134.9,0.8,2.0,119.1,0.47,23.2,26.7,"10:22:24",1
"19/07/17","10:40",0.0,28.9,71.3,1007.8,86.9,0.7,2.6,120.8,0.48,23.2,27.2,"10:36:32",1
"19/07/17","10:50",0.0,29.3,69.7,1007.6,97.3,1.0,2.1,115.3,0.49,23.2,27.4,"10:47:20",1
"19/07/17","11:00",0.0,29.0,68.4,1007.8,122.3,1.3,3.6,111.0,0.51,22.6,27.7,"10:56:56",1
"19/07/17","11:10",0.0,29.3,67.7,1007.6,111.5,1.1,2.4,120.9,0.44,22.7,28.0,"11:03:28",1
"19/07/17","11:20",0.0,29.6,67.4,1007.8,162.3,1.6,3.7,126.4,0.50,23.0,28.2,"11:16:56",1
"19/07/17","11:30",0.0,29.7,66.9,1007.4,176.5,1.3,2.7,209.0,0.37,22.9,28.2,"11:24:08",1
"19/07/17","11:40",0.0,30.1,67.3,1007.1,160.7,1.1,2.9,203.7,0.46,23.4,28.3,"11:31:12",1
"19/07/17","11:50",0.0,30.5,65.2,1007.4,186.6,2.0,3.6,186.3,0.58,23.3,28.6,"11:46:32",1
"19/07/17","12:00",0.0,30.2,65.4,1007.1,197.4,1.8,3.5,225.5,0.50,23.0,28.7,"11:50:48",1
"19/07/17","12:10",0.0,30.2,67.0,1007.4,179.4,1.5,3.1,166.1,0.54,23.4,29.0,"12:06:16",1
"19/07/17","12:20",0.0,30.2,67.1,1007.4,189.2,1.6,3.6,176.6,0.38,23.5,28.7,"12:18:56",1
"19/07/17","12:30",0.0,31.1,64.6,1006.9,189.8,1.6,3.4,224.6,0.63,23.7,29.3,"12:22:16",1
"19/07/17","12:40",0.0,31.2,65.4,1006.9,164.4,1.6,3.6,197.4,0.43,24.0,29.4,"12:37:28",1
"19/07/17","12:50",0.0,30.9,65.4,1006.9,165.9,2.2,4.7,186.7,0.45,23.7,29.3,"12:45:28",1
"19/07/17","13:00",0.0,31.5,64.9,1007.1,180.8,2.0,3.6,223.9,0.52,24.1,29.4,"12:51:36",1
"19/07/17","13:10",0.0,30.6,63.6,1006.9,197.9,1.3,3.2,221.1,0.31,22.9,29.6,"13:03:36",1
"19/07/17","13:20",0.0,30.3,64.0,1006.7,191.8,1.7,4.5,225.8,0.22,22.8,29.7,"13:11:44",1
"19/07/17","13:30",0.0,30.8,64.2,1006.2,168.1,1.2,3.7,231.7,0.27,23.3,29.5,"13:27:12",1
"19/07/17","13:40",0.0,31.1,63.4,1006.2,194.0,2.0,5.0,194.5,0.28,23.4,29.5,"13:31:28",1
"19/07/17","13:50",0.0,31.8,63.2,1006.7,163.3,1.3,3.7,222.2,0.49,24.0,29.5,"13:45:44",1
"19/07/17","14:00",0.0,31.3,60.4,1006.7,169.5,1.2,3.5,183.6,0.38,22.8,29.5,"13:51:12",1
"19/07/17","14:10",0.0,31.9,61.5,1006.2,165.9,1.1,3.1,229.4,0.24,23.6,29.4,"14:02:08",1
"19/07/17","14:20",0.0,31.2,60.8,1006.4,216.7,1.8,4.1,201.1,0.28,22.8,29.3,"14:17:44",1
"19/07/17","14:30",0.0,32.1,59.2,1006.4,188.9,1.7,4.4,207.3,0.53,23.2,29.5,"14:24:56",1
"19/07/17","14:40",0.0,31.6,60.0,1006.2,210.4,1.7,4.0,194.5,0.25,22.9,29.3,"14:38:16",1
"19/07/17","14:50",0.0,32.0,57.3,1005.7,182.0,1.5,3.5,229.9,0.29,22.5,29.2,"14:40:08",1
"19/07/17","15:00",0.0,32.5,56.4,1006.2,182.8,2.2,6.3,211.7,0.48,22.7,29.2,"14:57:52",1
"19/07/17","15:10",0.0,32.8,56.6,1006.2,211.7,1.3,3.7,221.1,0.39,23.1,29.7,"15:00:08",1
"19/07/17","15:20",0.0,32.5,52.7,1006.0,224.7,2.0,4.8,228.1,0.43,21.6,29.3,"15:17:28",1
"19/07/17","15:30",0.0,33.1,52.5,1006.2,264.3,1.1,3.1,9.4,0.39,22.1,29.5,"15:20:02",1
"19/07/17","15:40",0.0,32.7,54.7,1006.0,271.4,1.2,2.6,16.6,0.39,22.4,29.7,"15:30:08",1
"19/07/17","15:50",0.0,32.7,55.3,1006.0,217.9,1.5,3.3,198.1,0.36,22.6,29.6,"15:43:52",1
"19/07/17","16:00",0.0,32.6,56.4,1006.0,227.1,1.3,3.9,224.9,0.31,22.8,29.6,"15:56:56",1
"19/07/17","16:10",0.0,33.0,54.4,1006.0,218.1,1.2,3.4,225.4,0.35,22.6,29.6,"16:03:28",1
"19/07/17","16:20",0.0,32.6,54.6,1006.0,205.4,1.6,3.9,222.4,0.21,22.3,29.5,"16:18:48",1
"19/07/17","16:30",0.0,32.2,56.0,1005.5,182.9,1.3,2.8,223.1,0.20,22.3,29.6,"16:20:56",1
"19/07/17","16:40",0.0,32.7,55.8,1006.0,201.0,1.6,3.2,216.2,0.26,22.8,29.7,"16:36:00",1
"19/07/17","16:50",0.0,32.6,55.6,1006.0,200.3,1.3,3.6,208.0,0.22,22.6,29.7,"16:47:36",1
"19/07/17","17:00",0.0,32.6,55.8,1005.5,183.3,1.7,2.9,172.2,0.19,22.7,29.6,"16:59:44",1
"19/07/17","17:10",0.0,32.0,56.7,1005.5,185.3,2.0,4.2,186.7,0.13,22.4,29.5,"17:00:02",1
"19/07/17","17:20",0.0,31.9,58.4,1005.0,183.9,2.6,4.2,209.6,0.16,22.8,29.6,"17:13:20",1
"19/07/17","17:30",0.0,31.9,58.7,1005.0,186.6,2.6,4.3,205.2,0.14,22.8,29.4,"17:26:48",1
"19/07/17","17:40",0.0,31.6,59.6,1004.5,194.4,2.7,4.9,210.5,0.07,22.8,29.2,"17:31:52",1
"19/07/17","17:50",0.0,31.2,61.2,1005.0,181.8,2.2,3.2,224.3,0.03,22.9,29.2,"17:40:08",1
"19/07/17","18:00",0.0,31.0,61.7,1004.5,191.0,2.6,5.0,218.4,0.04,22.8,29.1,"17:56:00",1
"19/07/17","18:10",0.0,30.9,62.4,1004.5,198.1,2.5,5.0,213.3,0.05,22.9,29.0,"18:06:00",1
"19/07/17","18:20",0.0,30.6,63.5,1004.3,184.4,2.1,3.6,201.0,0.04,22.9,29.0,"18:14:32",1
"19/07/17","18:30",0.0,30.2,63.6,1004.5,178.4,2.2,4.2,208.2,0.03,22.6,28.7,"18:24:32",1
"19/07/17","18:40",0.0,30.0,63.7,1004.5,184.7,2.0,3.2,195.4,0.02,22.4,28.7,"18:32:32",1
"19/07/17","18:50",0.0,29.9,65.0,1004.5,156.8,1.1,2.2,152.6,0.02,22.6,28.5,"18:40:48",1
"19/07/17","19:00",0.0,29.7,64.8,1005.0,195.6,1.0,1.9,226.9,0.01,22.4,28.5,"18:56:40",1
"19/07/17","19:10",0.0,29.5,65.9,1004.5,191.1,0.7,2.0,228.9,0.00,22.5,28.2,"19:01:36",1
"19/07/17","19:20",0.0,29.3,67.3,1004.3,227.4,0.2,1.1,215.7,0.00,22.7,28.3,"19:11:12",1
"19/07/17","19:30",0.0,28.7,67.5,1004.3,271.4,0.3,0.8,278.6,0.00,22.1,28.2,"19:21:52",1
"19/07/17","19:40",0.0,28.5,67.2,1003.8,287.4,0.6,1.3,241.9,0.00,21.9,28.2,"19:34:40",1
"19/07/17","19:50",0.0,28.3,67.8,1004.5,298.6,0.7,1.2,277.8,0.00,21.8,28.1,"19:46:40",1
"19/07/17","20:00",0.0,28.0,69.6,1004.5,278.8,0.7,1.2,269.0,0.00,22.0,28.1,"19:51:44",1
"19/07/17","20:10",0.0,27.8,70.7,1005.2,285.7,0.6,0.9,341.7,0.00,22.0,27.7,"20:01:20",1
"19/07/17","20:20",0.0,27.6,71.2,1005.5,314.7,0.6,1.0,308.2,0.00,22.0,27.8,"20:12:24",1
"19/07/17","20:30",0.0,27.3,72.6,1005.5,35.3,0.3,0.9,308.5,0.00,22.0,27.6,"20:20:02",1
"19/07/17","20:40",0.0,26.6,76.1,1005.5,327.3,0.8,1.4,340.0,0.00,22.1,27.6,"20:30:48",1
"19/07/17","20:50",0.0,26.3,77.9,1005.7,320.1,1.0,1.7,336.4,0.00,22.2,27.3,"20:42:24",1
"19/07/17","21:00",0.0,26.0,79.3,1006.0,337.0,1.3,1.7,346.1,0.00,22.2,27.3,"20:50:08",1
"19/07/17","21:10",0.0,25.6,80.5,1006.2,309.3,1.0,1.9,337.7,0.00,22.0,27.2,"21:05:12",1
"19/07/17","21:20",0.0,25.5,80.7,1006.2,303.9,0.8,1.4,327.4,0.00,22.0,27.0,"21:14:56",1
"19/07/17","21:30",0.0,25.4,81.2,1006.4,314.7,1.0,1.7,325.9,0.00,22.0,27.1,"21:25:04",1
"19/07/17","21:40",0.0,25.3,82.3,1007.1,333.3,1.0,1.8,345.0,0.00,22.1,26.9,"21:32:16",1
"19/07/17","21:50",0.0,25.1,83.0,1006.9,276.8,0.7,1.1,239.5,0.00,22.0,26.7,"21:44:48",1
"19/07/17","22:00",0.0,25.0,83.2,1006.9,310.6,1.0,1.6,309.0,0.00,22.0,26.6,"21:50:48",1
"19/07/17","22:10",0.0,24.9,83.8,1007.1,310.6,1.1,2.0,341.8,0.00,22.0,26.8,"22:06:56",1
"19/07/17","22:20",0.0,25.0,83.9,1007.4,319.8,1.2,2.4,336.1,0.00,22.1,26.5,"22:10:24",1
"19/07/17","22:30",0.0,24.7,84.1,1007.1,318.4,0.8,1.2,340.2,0.00,21.9,26.4,"22:26:16",1
"19/07/17","22:40",0.0,24.6,84.6,1007.4,277.7,0.7,1.1,300.9,0.00,21.9,26.4,"22:37:12",1
"19/07/17","22:50",0.0,24.5,85.0,1007.6,290.4,0.7,1.6,269.4,0.00,21.9,26.2,"22:41:36",1
"19/07/17","23:00",0.0,24.3,85.1,1007.6,293.3,0.8,1.7,331.6,0.00,21.7,26.2,"22:58:08",1
"19/07/17","23:10",0.0,24.2,85.6,1007.6,291.7,0.8,1.6,324.0,0.00,21.7,26.2,"23:00:48",1
"19/07/17","23:20",0.0,24.1,86.1,1007.6,276.8,0.8,1.2,270.4,0.00,21.7,26.1,"23:15:52",1
"19/07/17","23:30",0.0,24.1,86.6,1007.8,290.0,0.8,1.3,266.5,0.00,21.8,26.0,"23:20:40",1
"19/07/17","23:40",0.0,24.2,86.9,1007.8,292.1,0.7,1.6,302.4,0.00,21.9,25.9,"23:39:04",1
"19/07/17","23:50",0.0,24.4,87.0,1007.8,334.5,0.7,2.0,348.1,0.00,22.1,26.0,"23:44:40",1
"19/07/17","24:00",0.0,24.4,86.9,1007.6,289.9,0.7,1.7,331.4,0.00,22.1,26.0,"23:58:56",1
